User: anonymous   Login
Location: Unspecified
(0.0000°N, 0.0000°E)
Time: 19:22:48
(UTC+00:00)
Language:

STARLINK-6290 - Orbit

View from above orbital plane
View from above orbital plane
View from above satellite
View from above satellite

Ground track
Ground track

The orbit is defined by the following mean orbital elements,

1 57328U          26145.47637104 +.00000000 +00000-0 -11002-3 0 00006
2 57328  43.0036 178.4380 0001860 293.6081  66.4575 15.27549835    00
Epoch (UTC): 25 May 2026 11:25:58
Eccentricity: 0.0001860
inclination: 43.0036°
perigee height: 482 km
apogee height: 484 km
right ascension of ascending node: 178.4380°
argument of perigee: 293.6081°
revolutions per day: 15.27549835
mean anomaly at epoch: 66.4575°

The dashed part of the orbit path shows where the satellite is in the earth's shadow,  

DLR